Home > Weather > Naples > Past weeks

Flag for USA Weather for the Past 2 Weeks in Naples, Florida, USA

Now
76 °F

Sunny.


Feels Like: 77 °F
Forecast: 69 / 79 °F
Wind: 8 mph from Northeast

Location: Naples Municipal

Current Time: May 6, 2016 at 11:41:13 AM

Latest Report: May 6, 2016 at 10:53 AM


Visibility: 10 mi

Pressure: 29.92 "Hg

Humidity: 32%

Dew Point: 44 °F

Location of NaplesLocation

Historic Weather in Naples — Graph

°F

Naples Temperature Yesterday

Maximum temperature yesterday: 80 °F (at 1:53 PM)
Minimum temperature yesterday: 72 °F (at 7:53 AM)
Average temperature yesterday: 76 °F

High & Low Weather Summary for the Past Weeks

 TemperatureHumidityPressure
High90 °F (Apr 30, 3:53 PM)100% (Apr 26, 11:53 PM)30.06 "Hg (Apr 26, 11:53 PM)
Low66 °F (May 6, 6:53 AM)33% (May 6, 9:53 AM)29.69 "Hg (May 4, 7:53 PM)
Average78 °F73%29.93 "Hg
* Reported Apr 21 9:53 AM — May 6 9:53 AM, Naples, Weather by CustomWeather, © 2016

Note: Actual official high and low records may vary slightly from our data, if they occured in-between our weather recording intervals... More about our weather records

Advertising

Naples Weather History for the Previous 24 Hours

Scroll right to see more
 ConditionsComfort  
Time TempWeatherWind HumidityBarometerVisibility
9:53 AM
Fri, May 6
74 °FSunny.12 mph33%29.90 "Hg10 mi
8:53 AM71 °FSunny.14 mph39%29.90 "Hg10 mi
7:53 AM68 °FSunny.9 mph63%29.88 "Hg10 mi
6:53 AM66 °FClear.5 mph68%29.84 "Hg10 mi
5:53 AM67 °FClear.5 mph66%29.83 "Hg10 mi
4:53 AM68 °FPartly cloudy.5 mph63%29.82 "Hg10 mi
3:53 AM68 °FPassing clouds.3 mph68%29.82 "Hg10 mi
2:53 AM70 °FClear.3 mph61%29.83 "Hg10 mi
1:53 AM72 °FPassing clouds.6 mph61%29.83 "Hg10 mi
12:53 AM74 °FMild.N/A57%29.85 "Hg10 mi
11:53 PM
Thu, May 5
75 °FPassing clouds.5 mph55%29.84 "Hg10 mi
10:53 PM76 °FMild.N/A50%29.83 "HgN/A
9:53 PM77 °FPassing clouds.N/A52%29.82 "Hg10 mi
8:53 PM77 °FMostly cloudy.14 mph60%29.81 "Hg10 mi
7:53 PM76 °FBroken clouds.7 mph62%29.79 "Hg10 mi
6:53 PM78 °FScattered clouds.14 mph54%29.80 "Hg10 mi
5:53 PM79 °FPassing clouds.15 mph50%29.79 "Hg10 mi
4:53 PM80 °FPassing clouds.15 mph47%29.79 "Hg10 mi
3:53 PM80 °FSunny.14 mph49%29.80 "Hg10 mi
2:53 PM80 °FSunny.14 mph49%29.81 "Hg10 mi
1:53 PM80 °FSunny.17 mph45%29.83 "Hg10 mi
12:53 PM79 °FSunny.16 mph45%29.84 "Hg10 mi
11:53 AM78 °FSunny.16 mph43%29.85 "Hg10 mi
Weather by CustomWeather, © 2016

See weather overviewHow to use our weather pages